Regional Weather Roundup
Issued by NWS

Home | Current Version | Previous Version | Graphics & Text | Print | Product List | Glossary Off
Versions: 1 2 3 4 5 6 7 8 9 10 11 12 13 14 15 16 17 18 19 20 21 22 23 24 25 26 27 28 29 30 31 32 33 34 35 36 37 38 39 40 41 42 43 44 45 46 47 48 49 50

000
ASUS43 KMKX 020921
RWRWI

WISCONSIN REGIONAL WEATHER ROUNDUP
NATIONAL WEATHER SERVICE MILWAUKEE/SULLIVAN WI
400 AM CDT THU JUL 02 2015

NOTE: "FAIR" INDICATES FEW OR NO CLOUDS BELOW 12,000 FEET WITH NO
SIGNIFICANT WEATHER AND/OR OBSTRUCTIONS TO VISIBILITY.

WIZ001-002-006>008-014>016-023>028-021000-
NORTHWEST WISCONSIN

CITY           SKY/WX    TMP DP  RH WIND       PRES   REMARKS
SUPERIOR ARPT  CLOUDY    52  52  99 CALM      30.01R
ASHLAND        CLEAR     46  46 100 S3        30.02R
HAYWARD        CLEAR     49  47  93 CALM      30.04R
SIREN          NOT AVBL
CUMBERLAND     NOT AVBL
RICE LAKE      CLEAR     51  50  96 CALM      30.04R FOG
CHETEK         NOT AVBL
LADYSMITH      NOT AVBL
EAU CLAIRE     CLEAR     51  49  92 CALM      30.01R
MENOMONIE      NOT AVBL
NEW RICHMOND   CLEAR     53  53  99 CALM      30.02S FOG
OSCEOLA        NOT AVBL
$$

WIZ003>005-009-010-017-018-021000-
NORTH CENTRAL WISCONSIN

CITY           SKY/WX    TMP DP  RH WIND       PRES   REMARKS
MANITOWISH WTR NOT AVBL
ARBOR VITAE    CLEAR     46  44  92 CALM      30.04S
WOODRUFF       CLEAR     46  44  92 CALM      30.04S
RHINELANDER    CLEAR     46  43  89 CALM      30.05R
EAGLE RIVER    NOT AVBL
LAND O LAKES   CLEAR     41  41 100 CALM      30.05S
PHILLIPS       NOT AVBL
TOMAHAWK       NOT AVBL
MEDFORD        CLEAR     49  47  93 CALM      30.04R
MERRILL        NOT AVBL
$$

WIZ029-030-035-036-043>047-021000-
CENTRAL WISCONSIN

CITY           SKY/WX    TMP DP  RH WIND       PRES   REMARKS
WAUSAU         CLEAR     51  48  89 SE5       30.04R
MOSINEE        NOT AVBL
MARSHFIELD     CLEAR     52  48  86 E7        30.03R
STEVENS POINT  PTCLDY    52  50  94 CALM      30.05R
WAUPACA        NOT AVBL
WAUTOMA        CLEAR     48  48 100 CALM      30.05S
WISC RAPIDS    CLOUDY    54  51  90 SE9       30.05R
CAMP DOUGLAS   CLEAR     44  44 100 SE1       30.02R
$$

WIZ011>013-019>022-031-037>040-048>050-021000-
NORTHEAST WISCONSIN

CITY           SKY/WX    TMP DP  RH WIND       PRES   REMARKS
ANTIGO         CLEAR     45  45  99 CALM      30.05S
SHAWANO        NOT AVBL
OCONTO         NOT AVBL
STURGEON BAY   CLEAR     46  43  87 CALM      30.06S
GREEN BAY      CLEAR     48  46  93 CALM      30.04R
MANITOWOC      CLEAR     46  46 100 MISG      30.04S
APPLETON       NOT AVBL
CLINTONVILLE   NOT AVBL
OSHKOSH        CLEAR     50  45  83 CALM      30.03S
$$

WIZ032>034-041-042-053>061-021000-
SOUTHWEST WISCONSIN

CITY           SKY/WX    TMP DP  RH WIND       PRES   REMARKS
LA CROSSE      CLEAR     53  51  93 E5        30.01R
SPARTA         NOT AVBL
VIROQUA        NOT AVBL
BOSCOBEL       FOG       52  51  97 CALM      30.03R VSB 1/4
PRAIRIE DU CHI NOT AVBL
PLATTEVILLE    NOT AVBL
$$

WIZ056-057-062-063-064-067-068-021000-
SOUTH CENTRAL WISCONSIN

CITY           SKY/WX    TMP DP  RH WIND       PRES   REMARKS
REEDSBURG      NOT AVBL
BARABOO/DELLS  CLEAR     50  48  94 CALM      30.03  FOG
LONE ROCK      FOG       48  47  96 CALM      30.04R VSB 3/4
MINERAL POINT  NOT AVBL
MADISON        CLEAR     49  47  93 N3        30.02R FOG
MIDDLETON      NOT AVBL
WATERTOWN      NOT AVBL
MONROE         NOT AVBL
JANESVILLE     FOG       50  46  87 CALM      30.01  VSB 1
$$

WIZ051-052-058>065-066-070>072-021000-
SOUTHEAST WISCONSIN

CITY           SKY/WX    TMP DP  RH WIND       PRES   REMARKS
MILWAUKEE      CLEAR     53  47  79 N7        30.02R
WAUKESHA       NOT AVBL
MILWAUKEE/TIMM NOT AVBL
RACINE         CLEAR     53  48  83 N8        30.03R
BURLINGTON     NOT AVBL
KENOSHA        CLEAR     45  43  93 W3        30.02R FOG
FOND DU LAC    CLEAR     48  46  93 CALM      30.03S
SHEBOYGAN      CLEAR     47  45  93 N5        30.03S
WEST BEND      NOT AVBL
JUNEAU         NOT AVBL
$$

LSZ147-162-021000-
LAKE SUPERIOR

STATION/POSITION TIME  TEMP    WIND        PRES    WAVE
                       AIR SEA DIR/SP/G            HT/PER
                 (UTC) (F)     (DEG/KT/KT) (MB)    (FT/S)
W MID LAKE BUOY  0850   46 38  300/  2/  2 1016.2F   0
DEVILS ISLAND    0900   59     230/  4/  4 1016.1S
SAXON HARBOR     0800   52     190/  4/  6 1015.9
$$

LMZ867-665-643>646-021000-
LAKE MICHIGAN

STATION/POSITION TIME  TEMP    WIND        PRES    WAVE
                       AIR SEA DIR/SP/G            HT/PER
                 (UTC) (F)     (DEG/KT/KT) (MB)    (FT/S)
CHAMBERS ISLAND  0800   49        CALM     1017.3S
S GREEN BAY BUOY 0900   59 68  100/  6/ 10 1018.5R
N MID LAKE BUOY  0850   48 42  320/  2/  2 1017.4S   0
NORTHPORT PIER   0800   51        CALM     1017.3S
SISTER BAY       0714   53      80/  1/  4   N/A
ALGOMA LAKESHORE 0840             CALM       N/A
KEWAUNEE LAKESHO 0800   47      CALM  /  3 1016.5S
SHEBOYGAN LAKESH 0900   55      30/ 12/ 13 1017.1R
PORT WASHINGTON  0800   53     340/  4/  6 1017.3
ATWATER BUOY     0900   57      20/ 12/ 14 1017.7R
MILWAUKEE LAKESH 0900   56      20/ 10/ 12   N/A
KENOSHA   LAKESH 0900   56      20/ 12/ 14 1016.3R
$$

TC  - TEMPERATURE IN CELSIUS
VSB - VISIBILITY IN STATUTE MILES
WCI - WIND CHILL INDEX
HX  - HEAT INDEX




USA.gov is the U.S. government's official web portal to all federal, state and local government web resources and services.